[[{"header":{"parameterUnit":"m.s-1","parameterCategory":2,"la1":30.2991,"la2":30.254,"lo1":-89.0895,"lo2":-89.0444,"dy":0.0017,"dx":0.0017,"nx":28,"ny":28,"refTime":"2023-07-24T03:00:00:Z","depth":"0","parameterNumber":2,"parameterNumberName":"U-component_of_CURRENTS"},"data":[0,0,0,0,0,0,0,0,0,0,0,0,0,0,0,0,0,0,0,0,0,0,0,0,0,0,0,0,0,0,0,0,0,0,0,0,0,0,0,0,0,0,0,0,0,0,0,0,0,0,0,0,0,0,0,0,0,0,0.1229,0.1229,0,0.1205,0.1204,0.1204,0.1182,0.1182,0.1182,0.1181,0.1166,0.1166,0.1166,0,0,0,0,0,0,0,0,0,0,0,0,0,0.1241,0.1241,0.1229,0.1229,0.1229,0.1205,0.1204,0.1204,0.1182,0.1182,0.1182,0.1181,0.1166,0.1166,0.1166,0,0,0,0,0,0,0,0,0,0,0,0,0,0.1226,0.124,0.1229,0.1216,0.1215,0.1205,0.1204,0.1204,0.1182,0.1182,0.1182,0.1181,0.1166,0.1166,0.1166,0.1165,0,0,0.1164,0.1164,0,0,0,0,0,0,0,0,0.1227,0.1225,0.1218,0.1217,0.1216,0.1198,0.1203,0.1192,0.1182,0.1192,0.1181,0.1181,0.1179,0.1177,0.117,0.1164,0.1164,0.1164,0.1164,0.1163,0.1163,0,0,0,0,0,0,0,0.1228,0.1226,0.1217,0.1218,0.1217,0.1207,0.1204,0.12,0.1185,0.1191,0.119,0.1191,0.1178,0.1171,0.117,0.1164,0.1164,0.1164,0.1163,0.1163,0.1239,0.1241,0,0,0,0,0,0,0.1236,0.1227,0.1218,0.1217,0.1223,0.1207,0.1204,0.1202,0.1185,0.1183,0.1191,0.119,0.1172,0.117,0.1169,0.1246,0.1163,0.1163,0.1163,0.1236,0.1239,0.1242,0,0,0,0,0,0,0.1236,0.1235,0.1219,0.1223,0.1221,0.1207,0.1205,0.1202,0.1198,0.1185,0.1182,0.1191,0.1172,0.117,0.1185,0.1242,0.1163,0.1162,0.1234,0.1237,0.1241,0.1348,0,0,0,0,0,0,0.1237,0.1235,0.1237,0.1224,0.1221,0.1222,0.1205,0.1201,0.1199,0.1198,0.1184,0.1182,0.1171,0.1186,0.1185,0.124,0.1162,0.1231,0.1235,0.1239,0.1342,0.1355,0.1366,0,0,0,0,0,0.1237,0.1241,0.1237,0.1236,0.1223,0.1222,0.122,0.1208,0.12,0.1203,0.1203,0.1183,0.1213,0.1187,0.1185,0.1241,0.1229,0.1234,0.1239,0.1336,0.1353,0.1366,0,0,0,0,0,0,0.1242,0.1238,0.1234,0.1235,0.1233,0.1219,0.1222,0.1213,0.1213,0.1215,0.1199,0.1198,0.1241,0.122,0.1191,0.1278,0.1223,0.1228,0.1298,0.1313,0.1325,0.1362,0.1162,0,0,0,0,0,0.1246,0.125,0.1244,0.1246,0.1247,0.1235,0.1233,0.1228,0.1226,0.1225,0.1219,0.1227,0.126,0.1267,0.1278,0.131,0.1341,0.135,0.1362,0.1372,0.1403,0.1503,0.1528,0.1259,0.1259,0.1259,0,0,0.1248,0.1248,0.1249,0.1248,0.1245,0.1262,0.1233,0.1238,0.1263,0.1225,0.1256,0.1265,0.1278,0.1328,0.1346,0.1317,0.1465,0.1379,0.1388,0.1413,0.1511,0.1538,0.1561,0.1262,0.1262,0.1261,0,0,0.1264,0.1257,0.127,0.1275,0.1279,0.128,0.1284,0.1279,0.1289,0.1313,0.1318,0.1367,0.137,0.142,0.1441,0.1525,0.1528,0.1521,0.1611,0.1708,0.1732,0.1753,0.1828,0.1855,0.1525,0.1525,0.1525,0,0.1265,0.1284,0.1274,0.1293,0.1308,0.1294,0.132,0.1333,0.1336,0.1371,0.1336,0.1431,0.143,0.1547,0.158,0.1559,0.1601,0.1552,0.1727,0.1749,0.1768,0.184,0.1869,0.1531,0.153,0.153,0.1529,0,0.1297,0.1313,0.1323,0.135,0.1364,0.1382,0.1403,0.1426,0.1433,0.1459,0.1555,0.1571,0.1636,0.1649,0.1638,0.1791,0.1772,0.1733,0.1693,0.1803,0.187,0.1898,0.1539,0.1537,0.1536,0.1534,0,0,0.1294,0.1337,0.1341,0.1364,0.1398,0.141,0.1474,0.1536,0.1591,0.1624,0.171,0.1796,0.1816,0.1844,0.1854,0.1936,0.2105,0.1899,0.1901,0.198,0.2319,0.2342,0.2373,0.2097,0.2103,0.2107,0.2311,0,0.1322,0.137,0.1391,0.1445,0.1472,0.1499,0.1561,0.1621,0.1665,0.1739,0.1818,0.1886,0.1888,0.1915,0.2021,0.2072,0.2183,0.2053,0.2196,0.2201,0.2214,0.2409,0.2415,0.2602,0.2338,0.2342,0.2346,0,0.135,0.138,0.1435,0.1502,0.1518,0.1551,0.1649,0.1699,0.1817,0.1856,0.1971,0.2005,0.2159,0.2107,0.2339,0.2254,0.232,0.2357,0.2364,0.2373,0.2278,0.2449,0.2661,0.2517,0.2388,0.2384,0.2381,0,0.1354,0.1413,0.1459,0.1477,0.155,0.159,0.1632,0.174,0.1803,0.1922,0.1982,0.2155,0.2232,0.2365,0.2468,0.2411,0.2694,0.2611,0.2711,0.271,0.2742,0.2736,0.2843,0.2805,0.2805,0.2804,0.2804,0,0.1381,0.1415,0.1456,0.1479,0.1542,0.1589,0.1677,0.1738,0.1853,0.1946,0.2041,0.2143,0.2302,0.2462,0.254,0.2746,0.2773,0.2798,0.28,0.2777,0.2772,0.2662,0.2549,0.2812,0.281,0.2809,0.2807,0,0.1387,0.1414,0.1459,0.1522,0.1541,0.1579,0.1675,0.174,0.1846,0.1965,0.2003,0.2185,0.2399,0.2567,0.2777,0.2847,0.2927,0.3055,0.3012,0.3007,0.2941,0.2832,0.2848,0.2778,0.3217,0.3219,0.3221,0,0.1404,0.1423,0.1468,0.1479,0.1502,0.1564,0.1611,0.172,0.1787,0.1985,0.2039,0.2274,0.2441,0.279,0.2976,0.3198,0.3025,0.3288,0.3193,0.3012,0.2893,0.2679,0.2601,0.3272,0.3275,0.3276,0.3278,0,0.1427,0.1428,0.1453,0.147,0.1499,0.1547,0.1615,0.1674,0.1809,0.1926,0.2084,0.2226,0.2599,0.2836,0.3141,0.3275,0.3112,0.333,0.3178,0.3012,0.2757,0.2663,0.3022,0.3294,0.3292,0.3291,0.329,0.329,0.1431,0.1437,0.1446,0.1459,0.1483,0.151,0.1547,0.1639,0.1751,0.1922,0.2061,0.2283,0.2622,0.3069,0.3204,0.3383,0.3227,0.3307,0.3215,0.3031,0.2902,0.3295,0.353,0.3529,0.3529,0.3529,0.3529,0,0.1433,0.1428,0.1435,0.1437,0.1436,0.1464,0.1535,0.1576,0.1683,0.1878,0.2037,0.2384,0.268,0.2984,0.3282,0.3238,0.3134,0.3145,0.2844,0.2793,0.3219,0.3158,0.3279,0.3279,0.3279,0.3279,0.3279,0.328,0.1433,0.1424,0.1414,0.1387,0.1382,0.1392,0.1421,0.1496,0.1623,0.1842,0.2044,0.2222,0.2519,0.2796,0.2941,0.2971,0.2706,0.2641,0.2509,0.2787,0.2792,0.2797,0.2715,0.2741,0.2741,0.2047,0.2041,0.2037]},{"header":{"parameterUnit":"m.s-1","parameterCategory":2,"la1":30.2991,"la2":30.254,"lo1":-89.0895,"lo2":-89.0444,"dy":0.0017,"dx":0.0017,"nx":28,"ny":28,"refTime":"2023-07-24T03:00:00:Z","depth":"0","parameterNumber":3,"parameterNumberName":"V-component_of_CURRENTS"},"data":[0,0,0,0,0,0,0,0,0,0,0,0,0,0,0,0,0,0,0,0,0,0,0,0,0,0,0,0,0,0,0,0,0,0,0,0,0,0,0,0,0,0,0,0,0,0,0,0,0,0,0,0,0,0,0,0,0,0,-0.0057,-0.0057,0,-0.0099,-0.0099,-0.01,-0.0138,-0.0138,-0.0139,-0.014,-0.0213,-0.0215,-0.0216,0,0,0,0,0,0,0,0,0,0,0,0,0,-0.0004,-0.0005,-0.0056,-0.0057,-0.0058,-0.0099,-0.0099,-0.01,-0.0138,-0.0138,-0.0139,-0.014,-0.0213,-0.0215,-0.0216,0,0,0,0,0,0,0,0,0,0,0,0,0,-0.0034,-0.0005,-0.0056,-0.0082,-0.0085,-0.0099,-0.0099,-0.01,-0.0138,-0.0138,-0.0139,-0.014,-0.0212,-0.0214,-0.0217,-0.0213,0,0,-0.0223,-0.0224,0,0,0,0,0,0,0,0,-0.0032,-0.0036,-0.0078,-0.0081,-0.0084,-0.0115,-0.0108,-0.014,-0.0137,-0.0117,-0.014,-0.0141,-0.0184,-0.0188,-0.0192,-0.0217,-0.022,-0.0223,-0.0225,-0.0226,-0.0226,0,0,0,0,0,0,0,-0.003,-0.0034,-0.0072,-0.0079,-0.0082,-0.0091,-0.0096,-0.0114,-0.0145,-0.0118,-0.0122,-0.0128,-0.0185,-0.019,-0.0194,-0.0221,-0.0223,-0.0225,-0.0227,-0.0228,-0.0254,-0.0253,0,0,0,0,0,0,-0.0026,-0.0032,-0.0071,-0.0074,-0.0061,-0.0091,-0.0097,-0.0103,-0.0144,-0.0151,-0.0127,-0.013,-0.0186,-0.0192,-0.0197,-0.0181,-0.0226,-0.0228,-0.0229,-0.0254,-0.0254,-0.0253,0,0,0,0,0,0,-0.0025,-0.0029,-0.0069,-0.0055,-0.006,-0.0091,-0.0098,-0.0104,-0.0111,-0.015,-0.0158,-0.0129,-0.0187,-0.0194,-0.0208,-0.0185,-0.0229,-0.0231,-0.0255,-0.0254,-0.0253,-0.0159,0,0,0,0,0,0,-0.0023,-0.0029,-0.0026,-0.0054,-0.0061,-0.0069,-0.0098,-0.0104,-0.0114,-0.0117,-0.0154,-0.0162,-0.0188,-0.0205,-0.021,-0.0189,-0.0232,-0.0256,-0.0255,-0.0254,-0.0163,-0.0155,-0.0149,0,0,0,0,0,-0.0021,-0.0016,-0.0026,-0.0031,-0.0059,-0.0069,-0.0072,-0.0097,-0.0113,-0.0108,-0.0134,-0.0161,-0.0202,-0.0206,-0.0213,-0.0191,-0.0256,-0.0255,-0.0254,-0.0167,-0.0157,-0.0149,0,0,0,0,0,0,0.0008,-0.002,-0.0032,-0.0035,-0.0048,-0.0076,-0.0073,-0.0092,-0.0108,-0.0112,-0.0152,-0.0161,-0.0165,-0.0194,-0.0197,-0.0198,-0.0234,-0.0234,-0.0165,-0.0157,-0.015,-0.0107,-0.0234,0,0,0,0,0,0.0016,0.0012,-0.0013,-0.0014,-0.0017,-0.0044,-0.005,-0.0066,-0.0087,-0.0095,-0.0122,-0.0149,-0.0164,-0.0173,-0.0194,-0.0192,-0.0214,-0.0185,-0.0177,-0.0171,-0.0142,-0.0153,-0.0143,-0.0249,-0.0249,-0.0249,0,0,0.0028,0.0011,0.001,-0.0008,-0.0019,-0.0009,-0.0049,-0.0053,-0.0043,-0.01,-0.0096,-0.0126,-0.0159,-0.0156,-0.016,-0.0176,-0.0158,-0.0169,-0.0163,-0.0137,-0.015,-0.0139,-0.013,-0.0248,-0.0248,-0.0248,0,0,0.0055,0.0036,0.0047,0.0042,0.0029,0.0017,0.0018,-0.0006,-0.0013,-0.0014,-0.0051,-0.0059,-0.0093,-0.01,-0.011,-0.0075,-0.0121,-0.0095,-0.0017,-0.0028,-0.0019,-0.0011,-0.0046,-0.0042,-0.0088,-0.0087,-0.0087,0,0.007,0.0082,0.0051,0.0065,0.0073,0.0033,0.006,0.0048,0.0023,0.0035,-0.0002,-0.0019,-0.0057,-0.0031,-0.0022,-0.0054,-0.0079,-0.0046,-0.0016,-0.0009,-0.0002,-0.004,-0.0036,-0.0083,-0.0083,-0.0084,-0.0084,0,0.011,0.0123,0.0132,0.0139,0.0143,0.0158,0.0141,0.0144,0.0127,0.0121,0.0135,0.0088,0.0086,0.0064,0.0033,0.0066,0.0024,-0.0007,-0.0032,0.0015,-0.0029,-0.0027,-0.0076,-0.0078,-0.0079,-0.008,0,0,0.0139,0.0158,0.0163,0.0192,0.0188,0.0202,0.0221,0.0244,0.0277,0.0246,0.0288,0.0258,0.0238,0.0225,0.0179,0.017,0.0175,0.011,0.0107,0.0087,0.0135,0.0114,0.0113,0.0148,0.0149,0.015,0.0079,0,0.0186,0.0239,0.0232,0.0295,0.0329,0.0312,0.0341,0.0354,0.0354,0.0378,0.0347,0.0354,0.0296,0.029,0.0281,0.0206,0.0189,0.0197,0.0083,0.008,0.0066,0.0118,0.0162,0.0104,0.008,0.008,0.0081,0,0.0236,0.0268,0.0336,0.0395,0.0409,0.0435,0.0493,0.0514,0.0533,0.0532,0.0544,0.0501,0.0495,0.042,0.0353,0.0359,0.0266,0.0198,0.0192,0.0151,0.0065,0.0055,0.0107,0.0003,0.0083,0.0083,0.0083,0,0.0293,0.0349,0.0412,0.0428,0.0476,0.0509,0.0537,0.0569,0.0603,0.0627,0.0645,0.063,0.0608,0.0525,0.0393,0.0368,0.0302,0.024,0.0133,0.0128,0.0135,0.013,0.0092,0.0191,0.0191,0.0191,0.0191,0,0.0353,0.0408,0.0444,0.048,0.0562,0.0575,0.066,0.068,0.0717,0.0767,0.073,0.0745,0.0633,0.0571,0.0443,0.0315,0.034,0.0171,0.0126,0.0164,0.0163,0.0047,-0.0035,0.0188,0.0189,0.0189,0.019,0,0.0408,0.0429,0.0507,0.0568,0.0589,0.065,0.072,0.0779,0.0803,0.0859,0.0861,0.0834,0.0756,0.0637,0.0489,0.0375,0.0191,0.0183,0.0228,0.0191,-0.001,-0.0089,-0.0165,-0.0204,0.0058,0.0057,0.0056,0,0.0441,0.0485,0.0565,0.0609,0.0637,0.0716,0.0769,0.0814,0.0866,0.0905,0.093,0.0879,0.0852,0.0661,0.0468,0.0274,0.016,0.016,0.0126,0.0014,-0.0108,-0.0145,-0.0175,0.0152,0.0152,0.0152,0.0153,0,0.0506,0.0529,0.0586,0.0665,0.0728,0.0809,0.088,0.0925,0.0971,0.1015,0.1037,0.1018,0.0853,0.0709,0.0468,0.0314,0.0112,0.0154,0.0043,-0.0017,-0.006,-0.0131,0.0136,0.0155,0.0154,0.0154,0.0154,0.0154,0.0546,0.0591,0.0648,0.0724,0.0797,0.0876,0.0933,0.1002,0.1076,0.1145,0.1123,0.1157,0.0951,0.0639,0.0418,0.0098,0.0068,-0.0003,-0.0088,-0.0113,-0.0138,0.0127,0.0093,0.0092,0.0092,0.0091,0.0091,0,0.0579,0.0624,0.0701,0.0782,0.0853,0.0888,0.0986,0.1039,0.1114,0.1228,0.1265,0.1244,0.0971,0.0672,0.0237,-0.0056,-0.015,-0.0212,-0.0243,-0.0264,-0.0018,0.0001,-0.0056,-0.0056,-0.0056,-0.0056,-0.0056,-0.0056,0.06,0.0658,0.0692,0.0797,0.0857,0.0933,0.0983,0.1075,0.1175,0.1328,0.1427,0.1479,0.1279,0.0489,-0.0088,-0.0253,-0.0436,-0.0485,-0.0595,-0.0429,-0.0415,-0.0402,-0.04,-0.0541,-0.0541,-0.0756,-0.0759,-0.0761]}],[{"header":{"parameterUnit":"m.s-1","parameterCategory":2,"la1":30.2991,"la2":30.254,"lo1":-89.0895,"lo2":-89.0444,"dy":0.0017,"dx":0.0017,"nx":28,"ny":28,"refTime":"2023-07-24T03:00:00:Z","depth":"2","parameterNumber":2,"parameterNumberName":"U-component_of_CURRENTS"},"data":[0,0,0,0,0,0,0,0,0,0,0,0,0,0,0,0,0,0,0,0,0,0,0,0,0,0,0,0,0,0,0,0,0,0,0,0,0,0,0,0,0,0,0,0,0,0,0,0,0,0,0,0,0,0,0,0,0,0,0.1562,0.1562,0,0.1569,0.157,0.157,0.1589,0.159,0.159,0.1591,0.1639,0.164,0.1641,0,0,0,0,0,0,0,0,0,0,0,0,0,0.1604,0.1603,0.1562,0.1562,0.1563,0.1569,0.157,0.157,0.1589,0.159,0.159,0.1591,0.1639,0.164,0.1641,0,0,0,0,0,0,0,0,0,0,0,0,0,0.1596,0.1603,0.1562,0.1573,0.1574,0.1569,0.157,0.157,0.1589,0.159,0.1591,0.1591,0.1638,0.164,0.1641,0.1636,0,0,0.1645,0.1646,0,0,0,0,0,0,0,0,0.1597,0.1595,0.1572,0.1573,0.1574,0.1579,0.1602,0.1594,0.1589,0.1584,0.1591,0.1591,0.1622,0.1625,0.1624,0.1639,0.1641,0.1645,0.1646,0.1647,0.1647,0,0,0,0,0,0,0,0.1597,0.1595,0.1565,0.1572,0.1573,0.1591,0.159,0.1601,0.16,0.1584,0.1586,0.1586,0.1623,0.1623,0.1626,0.1641,0.1645,0.1646,0.1647,0.1648,0.1695,0.1696,0,0,0,0,0,0,0.1593,0.1595,0.1565,0.1565,0.1587,0.1589,0.1589,0.1577,0.1599,0.1603,0.1586,0.1587,0.162,0.1624,0.1628,0.1657,0.1647,0.1648,0.1649,0.1695,0.1695,0.1696,0,0,0,0,0,0,0.1594,0.159,0.1565,0.1581,0.1579,0.1588,0.1575,0.1577,0.1574,0.16,0.1604,0.1581,0.1621,0.1626,0.1646,0.1658,0.1648,0.165,0.1694,0.1695,0.1696,0.1694,0,0,0,0,0,0,0.1595,0.159,0.1578,0.158,0.1578,0.1558,0.1574,0.1576,0.1573,0.1575,0.1597,0.1602,0.1622,0.1644,0.1647,0.1659,0.1651,0.1694,0.1694,0.1695,0.1693,0.1694,0.1695,0,0,0,0,0,0.1596,0.1577,0.1577,0.1573,0.1561,0.1558,0.1558,0.1567,0.1572,0.1567,0.1592,0.1601,0.1652,0.1645,0.1649,0.1662,0.1693,0.1694,0.1695,0.1693,0.1694,0.1695,0,0,0,0,0,0,0.158,0.1577,0.1577,0.1555,0.1555,0.1561,0.1554,0.156,0.1573,0.1576,0.1603,0.161,0.1638,0.1645,0.1636,0.1679,0.1675,0.1677,0.1672,0.1674,0.1674,0.1688,0.1652,0,0,0,0,0,0.1572,0.1561,0.156,0.1541,0.1539,0.1544,0.1543,0.1548,0.1561,0.1566,0.1582,0.1608,0.1644,0.1654,0.1679,0.1691,0.1732,0.1703,0.1704,0.1705,0.1719,0.1783,0.1792,0.1699,0.1699,0.1699,0,0,0.1559,0.1557,0.1549,0.1538,0.1537,0.1538,0.1545,0.1537,0.1549,0.157,0.1584,0.161,0.165,0.1677,0.1689,0.1683,0.1754,0.1706,0.1707,0.1721,0.1785,0.1794,0.1803,0.17,0.17,0.17,0,0,0.1539,0.1526,0.1516,0.1517,0.1515,0.1523,0.1519,0.1521,0.1532,0.1546,0.158,0.1615,0.1638,0.1683,0.1709,0.1726,0.1761,0.1725,0.1737,0.1798,0.1807,0.1815,0.1887,0.1901,0.172,0.172,0.172,0,0.1525,0.1514,0.1512,0.1508,0.1514,0.1516,0.1517,0.1526,0.1538,0.1562,0.1549,0.1629,0.165,0.1723,0.1731,0.1731,0.1772,0.1728,0.1801,0.1809,0.1818,0.1889,0.1905,0.172,0.172,0.172,0.172,0,0.1508,0.1499,0.1492,0.1495,0.15,0.1496,0.1514,0.1524,0.1534,0.1558,0.1613,0.1644,0.1702,0.1707,0.1724,0.1797,0.1811,0.1799,0.1798,0.1827,0.1901,0.1917,0.172,0.172,0.172,0.172,0,0,0.1473,0.148,0.1477,0.1487,0.1495,0.15,0.1524,0.156,0.1596,0.1605,0.1664,0.1712,0.1736,0.1767,0.1793,0.1832,0.1923,0.1835,0.1838,0.1909,0.2072,0.2051,0.2067,0.192,0.1922,0.1924,0.2104,0,0.1461,0.1459,0.147,0.148,0.1483,0.1509,0.1538,0.1576,0.161,0.1663,0.1712,0.1771,0.1758,0.1793,0.1834,0.1913,0.1965,0.1876,0.2033,0.2038,0.2017,0.2085,0.1732,0.186,0.2121,0.2123,0.2125,0,0.1443,0.1449,0.1453,0.1491,0.1496,0.1508,0.1573,0.1603,0.1685,0.1717,0.1782,0.1824,0.1916,0.188,0.2029,0.1973,0.2028,0.2068,0.2075,0.2069,0.2047,0.1872,0.1881,0.2154,0.2151,0.2149,0.2147,0,0.143,0.1441,0.145,0.1457,0.1494,0.1517,0.1548,0.162,0.1672,0.1764,0.1818,0.1911,0.1983,0.2055,0.2146,0.2098,0.2303,0.225,0.2285,0.2285,0.2025,0.1997,0.2353,0.2353,0.2352,0.2352,0.2351,0,0.1418,0.1426,0.1443,0.1448,0.148,0.1512,0.1571,0.1617,0.1708,0.1789,0.1851,0.1936,0.2027,0.2148,0.2198,0.2318,0.2359,0.2319,0.2337,0.2015,0.1986,0.2262,0.2249,0.2359,0.2357,0.2356,0.2355,0,0.1407,0.1412,0.1427,0.1459,0.1472,0.1499,0.1579,0.1636,0.1714,0.1826,0.1864,0.1997,0.2159,0.2261,0.2411,0.2402,0.2502,0.2528,0.2157,0.2129,0.2427,0.2412,0.2584,0.2585,0.2586,0.2586,0.2587,0,0.1407,0.1406,0.143,0.1446,0.1459,0.1505,0.1552,0.1631,0.1701,0.1865,0.1929,0.2107,0.2212,0.243,0.2398,0.2491,0.2604,0.2282,0.2119,0.2454,0.2455,0.2438,0.2422,0.1776,0.177,0.1765,0.1761,0,0.1416,0.1415,0.1432,0.1448,0.1483,0.1529,0.1598,0.1646,0.1762,0.1852,0.199,0.2077,0.2206,0.213,0.2243,0.2239,0.223,0.2188,0.264,0.1781,0.1709,0.1704,0.1712,0.1716,0.172,0.1724,0.1726,0.1728,0.1433,0.1439,0.1449,0.1465,0.1496,0.1534,0.1564,0.165,0.1737,0.1831,0.1967,0.1969,0.1875,0.1845,0.1868,0.1871,0.2012,0.1911,0.1918,0.1933,0.1816,0.175,0.1744,0.1749,0.1753,0.1756,0.1759,0,0.1463,0.1459,0.1471,0.148,0.1492,0.1516,0.1585,0.1598,0.1668,0.1691,0.1783,0.1501,0.1441,0.1459,0.1325,0.1359,0.1259,0.1386,0.1193,0.1234,0.1272,0.1116,0.0863,0.0862,0.0861,0.0861,0,0,0.1484,0.149,0.1477,0.147,0.1471,0.1482,0.1505,0.1519,0.1494,0.1399,0.1297,0.1332,0.127,0.0992,0.097,0.0926,0.1081,0.0883,0.1564,0.1365,0.1403,0.1504,0.1304,0,0,0,0,0]},{"header":{"parameterUnit":"m.s-1","parameterCategory":2,"la1":30.2991,"la2":30.254,"lo1":-89.0895,"lo2":-89.0444,"dy":0.0017,"dx":0.0017,"nx":28,"ny":28,"refTime":"2023-07-24T03:00:00:Z","depth":"2","parameterNumber":3,"parameterNumberName":"V-component_of_CURRENTS"},"data":[0,0,0,0,0,0,0,0,0,0,0,0,0,0,0,0,0,0,0,0,0,0,0,0,0,0,0,0,0,0,0,0,0,0,0,0,0,0,0,0,0,0,0,0,0,0,0,0,0,0,0,0,0,0,0,0,0,0,0.0349,0.0348,0,0.0274,0.0273,0.0272,0.0217,0.0217,0.0216,0.0216,0.0118,0.0116,0.0114,0,0,0,0,0,0,0,0,0,0,0,0,0,0.0418,0.0417,0.0349,0.0348,0.0347,0.0274,0.0273,0.0272,0.0217,0.0217,0.0216,0.0216,0.0119,0.0116,0.0114,0,0,0,0,0,0,0,0,0,0,0,0,0,0.037,0.0417,0.0349,0.0311,0.0307,0.0274,0.0273,0.0271,0.0217,0.0217,0.0216,0.0215,0.012,0.0116,0.0113,0.0106,0,0,0.0103,0.0102,0,0,0,0,0,0,0,0,0.0373,0.0367,0.0318,0.0314,0.0309,0.0254,0.0261,0.0215,0.0217,0.0251,0.0216,0.0215,0.0162,0.0155,0.0143,0.0101,0.0097,0.0103,0.0101,0.0099,0.0098,0,0,0,0,0,0,0,0.0376,0.037,0.0319,0.0317,0.0311,0.0289,0.0281,0.0252,0.0211,0.0248,0.0244,0.0236,0.016,0.0146,0.014,0.0096,0.0103,0.01,0.0098,0.0097,-0.0004,-0.0005,0,0,0,0,0,0,0.0388,0.0373,0.0321,0.0316,0.034,0.0288,0.028,0.0272,0.0211,0.0202,0.0237,0.0234,0.0152,0.0144,0.0136,0.009,0.0099,0.0096,0.0094,-0.0003,-0.0004,-0.0005,0,0,0,0,0,0,0.039,0.0384,0.0324,0.0343,0.0334,0.0288,0.028,0.0271,0.0247,0.0203,0.0193,0.0221,0.0151,0.0141,0.0103,0.0087,0.0095,0.0092,-0.0003,-0.0004,-0.0005,0.0018,0,0,0,0,0,0,0.0392,0.0385,0.0381,0.0344,0.0334,0.0303,0.028,0.027,0.0244,0.0239,0.0186,0.0177,0.015,0.0109,0.01,0.0082,0.0089,-0.0002,-0.0003,-0.0004,0.0019,0.0018,0.0018,0,0,0,0,0,0.0395,0.039,0.0381,0.0375,0.033,0.0303,0.0295,0.026,0.0244,0.0236,0.0198,0.0178,0.0094,0.0106,0.0096,0.0077,-0.0001,-0.0003,-0.0004,0.0019,0.0018,0.0018,0,0,0,0,0,0,0.0411,0.0383,0.0373,0.0357,0.0334,0.0294,0.028,0.0259,0.0223,0.0214,0.0174,0.0162,0.0122,0.0097,0.0112,0.0043,0.0041,0.0037,0.0061,0.0061,0.0061,0.006,0.0087,0,0,0,0,0,0.0416,0.0407,0.0377,0.0365,0.0355,0.0318,0.0301,0.0278,0.0244,0.0226,0.0188,0.0145,0.011,0.0085,0.0052,0.0017,-0.0011,-0.0004,-0.0004,-0.0004,-0.0012,-0.0076,-0.0083,-0.001,-0.001,-0.001,0,0,0.0418,0.0402,0.0395,0.0369,0.0346,0.0324,0.0306,0.028,0.0254,0.0222,0.0174,0.0146,0.0102,0.0063,0.0041,0.0037,-0.0035,-0.0006,-0.0006,-0.0014,-0.0079,-0.0086,-0.0092,-0.0011,-0.0011,-0.0011,0,0,0.0415,0.0405,0.0394,0.0378,0.0348,0.0327,0.032,0.0278,0.0253,0.0215,0.0182,0.0143,0.0089,0.005,0.0025,0.0003,-0.003,-0.0008,-0.0017,-0.0078,-0.0085,-0.0091,-0.0112,-0.0121,-0.0014,-0.0014,-0.0014,0,0.0415,0.04,0.0387,0.0372,0.0356,0.0328,0.0309,0.0281,0.023,0.0208,0.0201,0.0112,0.0079,0.0023,0.0014,0.0001,-0.0026,-0.0009,-0.0078,-0.0085,-0.0092,-0.0113,-0.0122,-0.0013,-0.0013,-0.0013,-0.0013,0,0.0402,0.039,0.0383,0.0356,0.034,0.0321,0.0287,0.0261,0.0232,0.02,0.0145,0.0102,0.0048,0.0031,0.0015,-0.005,-0.0048,-0.0065,-0.0075,-0.0098,-0.0118,-0.0128,-0.0012,-0.0012,-0.0012,-0.0012,0,0,0.0391,0.0376,0.0372,0.0364,0.0331,0.0316,0.028,0.024,0.0217,0.0165,0.0129,0.0062,0.0042,0.0012,-0.0017,-0.0072,-0.0129,-0.0088,-0.0092,-0.0102,-0.0241,-0.0163,-0.0167,-0.0162,-0.0165,-0.0166,-0.0226,0,0.0379,0.0362,0.0353,0.033,0.0317,0.0293,0.0267,0.0229,0.0196,0.0158,0.0102,0.0063,0.0033,0.0017,-0.0047,-0.0101,-0.016,-0.011,-0.0223,-0.0226,-0.015,-0.0178,-0.0188,-0.0237,-0.0237,-0.0238,-0.024,0,0.0358,0.0353,0.0336,0.0324,0.0316,0.03,0.0264,0.024,0.0186,0.0163,0.011,0.0074,0.0002,-0.002,-0.0149,-0.0115,-0.0185,-0.0233,-0.0237,-0.0183,-0.0168,-0.022,-0.0256,-0.0257,-0.0256,-0.0255,-0.0253,0,0.0353,0.0337,0.0329,0.0322,0.0302,0.0291,0.028,0.0237,0.0229,0.0173,0.017,0.0069,0.0046,-0.0074,-0.0152,-0.0166,-0.028,-0.0313,-0.0313,-0.0307,-0.0348,-0.0341,-0.0433,-0.0433,-0.0432,-0.0432,-0.0432,0,0.0336,0.0328,0.033,0.0324,0.032,0.0303,0.0295,0.0271,0.025,0.0255,0.018,0.0177,0.0028,-0.0041,-0.0149,-0.0233,-0.0283,-0.0319,-0.0327,-0.0334,-0.0326,-0.0374,-0.0367,-0.0435,-0.0434,-0.0434,-0.0433,0,0.0324,0.0322,0.0318,0.0314,0.0318,0.0317,0.033,0.0334,0.031,0.0319,0.031,0.0251,0.0182,0.0053,-0.0108,-0.0193,-0.0304,-0.033,-0.0294,-0.0297,-0.0297,-0.0288,-0.036,-0.0358,-0.0356,-0.0355,-0.0354,0,0.0313,0.031,0.0323,0.0339,0.0341,0.035,0.0368,0.036,0.0379,0.038,0.0396,0.0346,0.0347,0.0174,-0.001,-0.0174,-0.0228,-0.0289,-0.0327,-0.0294,-0.0296,-0.0289,-0.0282,-0.0375,-0.0374,-0.0373,-0.0372,0,0.0304,0.0312,0.0321,0.0357,0.0383,0.0416,0.0445,0.0475,0.0483,0.052,0.056,0.057,0.0421,0.0262,0.0064,-0.0053,-0.0262,-0.0274,-0.0291,-0.0361,-0.0305,-0.0306,-0.0301,-0.0365,-0.0366,-0.0367,-0.0367,-0.0367,0.0308,0.0323,0.0352,0.0384,0.0425,0.0489,0.0535,0.0597,0.067,0.0763,0.0733,0.0722,0.0459,0.0212,0.0046,-0.015,-0.0159,-0.0279,-0.0284,-0.0289,-0.025,-0.0191,-0.0222,-0.0222,-0.0221,-0.0221,-0.0221,0,0.0319,0.0348,0.0383,0.0437,0.0497,0.0511,0.0598,0.0675,0.0806,0.0849,0.0931,0.0654,0.0502,0.0226,-0.0057,-0.0202,-0.0245,-0.0251,-0.0316,-0.0321,-0.0326,-0.0291,-0.0273,-0.0273,-0.0273,-0.0274,0,0,0.0334,0.037,0.0393,0.0492,0.0542,0.0639,0.0703,0.0839,0.0876,0.0951,0.0891,0.0864,0.0458,0.0218,0.001,-0.013,-0.0178,-0.0142,-0.0089,-0.0145,-0.0148,-0.0333,-0.0283,0,0,0,0,0]}],[{"header":{"parameterUnit":"m.s-1","parameterCategory":2,"la1":30.2991,"la2":30.254,"lo1":-89.0895,"lo2":-89.0444,"dy":0.0017,"dx":0.0017,"nx":28,"ny":28,"refTime":"2023-07-24T03:00:00:Z","depth":"4","parameterNumber":2,"parameterNumberName":"U-component_of_CURRENTS"},"data":[0,0,0,0,0,0,0,0,0,0,0,0,0,0,0,0,0,0,0,0,0,0,0,0,0,0,0,0,0,0,0,0,0,0,0,0,0,0,0,0,0,0,0,0,0,0,0,0,0,0,0,0,0,0,0,0,0,0,0.041,0.0411,0,0.0492,0.0493,0.0493,0.0592,0.0593,0.0595,0.0596,0.0633,0.0632,0.0632,0,0,0,0,0,0,0,0,0,0,0,0,0,0.0337,0.0338,0.0409,0.0411,0.0412,0.0492,0.0493,0.0494,0.0591,0.0593,0.0595,0.0597,0.0633,0.0632,0.0632,0,0,0,0,0,0,0,0,0,0,0,0,0,0.0388,0.0338,0.0409,0.0471,0.0477,0.0491,0.0493,0.0494,0.0591,0.0593,0.0596,0.0598,0.0633,0.0632,0.0631,0.0578,0,0,0.0629,0.0629,0,0,0,0,0,0,0,0,0.0385,0.039,0.0461,0.0467,0.0474,0.0535,0.0481,0.052,0.059,0.0547,0.0597,0.0599,0.0594,0.0597,0.0606,0.0579,0.0581,0.0629,0.0628,0.0628,0.0628,0,0,0,0,0,0,0,0.0381,0.0387,0.0441,0.0462,0.047,0.0495,0.0504,0.0489,0.0554,0.0551,0.0558,0.0568,0.0598,0.0607,0.0608,0.0582,0.0629,0.0628,0.0628,0.0627,0.0598,0.0597,0,0,0,0,0,0,0.0371,0.0384,0.0438,0.0444,0.0436,0.0494,0.0505,0.0512,0.0556,0.0565,0.0566,0.0573,0.0607,0.0609,0.0609,0.0641,0.0628,0.0627,0.0627,0.0598,0.0598,0.0597,0,0,0,0,0,0,0.0369,0.0374,0.0435,0.0417,0.0427,0.0493,0.05,0.0512,0.0575,0.0568,0.0578,0.0623,0.0609,0.061,0.063,0.064,0.0627,0.0626,0.0598,0.0598,0.0597,0.0644,0,0,0,0,0,0,0.0366,0.0373,0.0395,0.0416,0.0427,0.0473,0.0498,0.0512,0.0574,0.0585,0.0618,0.0621,0.0611,0.0631,0.0629,0.0638,0.0625,0.0599,0.0598,0.0598,0.0643,0.0646,0.0648,0,0,0,0,0,0.0363,0.0373,0.0395,0.0403,0.0448,0.0474,0.0482,0.0536,0.0575,0.0603,0.0623,0.0623,0.0626,0.063,0.0628,0.0637,0.0599,0.0598,0.0598,0.0642,0.0645,0.0648,0,0,0,0,0,0,0.0363,0.0384,0.0409,0.043,0.0466,0.0492,0.0526,0.056,0.0599,0.0623,0.0623,0.0626,0.0642,0.0629,0.0634,0.0624,0.061,0.0609,0.0645,0.0647,0.0649,0.0677,0.0625,0,0,0,0,0,0.0367,0.038,0.041,0.0434,0.0455,0.05,0.0528,0.0564,0.059,0.0616,0.0638,0.0643,0.0624,0.0634,0.062,0.062,0.0614,0.062,0.0623,0.0625,0.0644,0.0628,0.0632,0.0595,0.0595,0.0595,0,0,0.0373,0.039,0.0399,0.0435,0.0471,0.0498,0.0525,0.0576,0.0606,0.0606,0.0666,0.0657,0.0625,0.0624,0.063,0.0626,0.0632,0.0624,0.0627,0.0644,0.0628,0.0632,0.0635,0.0595,0.0595,0.0595,0,0,0.038,0.041,0.0426,0.0455,0.051,0.0528,0.0553,0.0606,0.0645,0.0681,0.0677,0.0684,0.0684,0.0658,0.0639,0.0643,0.0642,0.064,0.0682,0.0666,0.067,0.0673,0.0676,0.0679,0.0645,0.0645,0.0645,0,0.0398,0.0418,0.0439,0.0467,0.0498,0.0546,0.058,0.0607,0.0664,0.0686,0.0712,0.0709,0.0693,0.0663,0.0671,0.065,0.0655,0.0677,0.0672,0.0674,0.0677,0.0679,0.0682,0.0648,0.0647,0.0647,0.0647,0,0.0409,0.0446,0.0462,0.0505,0.0535,0.0577,0.061,0.0654,0.0707,0.0731,0.0756,0.0738,0.0741,0.0722,0.0705,0.0702,0.0704,0.0675,0.0672,0.0684,0.0685,0.0687,0.0651,0.065,0.0649,0.0649,0,0,0.0404,0.046,0.0473,0.051,0.0567,0.0593,0.0632,0.0674,0.0715,0.0758,0.0797,0.077,0.0793,0.0772,0.0747,0.0739,0.0757,0.0733,0.0731,0.075,0.0752,0.0662,0.0655,0.0737,0.0738,0.0738,0.0749,0,0.0424,0.0476,0.0496,0.0559,0.0595,0.0638,0.0668,0.071,0.0753,0.0799,0.0787,0.0812,0.0797,0.0814,0.0803,0.0767,0.0765,0.0759,0.0726,0.0726,0.0654,0.0654,0.074,0.075,0.075,0.0751,0.0751,0,0.0435,0.0471,0.0535,0.0601,0.0623,0.0666,0.0736,0.0769,0.0811,0.0847,0.0871,0.0876,0.0875,0.0862,0.0833,0.0838,0.0814,0.0784,0.0783,0.0687,0.0639,0.0731,0.0754,0.0754,0.0754,0.0754,0.0753,0,0.0426,0.05,0.0556,0.0583,0.0655,0.0703,0.0748,0.08,0.0835,0.0893,0.0932,0.0927,0.0951,0.0912,0.0861,0.0866,0.0818,0.0804,0.0698,0.0692,0.0753,0.075,0.0786,0.0786,0.0786,0.0786,0.0786,0,0.0428,0.0477,0.0571,0.0603,0.068,0.073,0.0807,0.0849,0.0905,0.093,0.0974,0.0954,0.0972,0.0937,0.0881,0.079,0.0832,0.0714,0.0684,0.0772,0.077,0.0755,0.0751,0.0787,0.0786,0.0786,0.0786,0,0.0402,0.0465,0.0537,0.0639,0.0682,0.0742,0.0845,0.0875,0.0954,0.0988,0.1012,0.1011,0.0938,0.0917,0.0846,0.0817,0.0727,0.068,0.079,0.0765,0.062,0.0619,0.0594,0.059,0.0588,0.0585,0.0583,0,0.0386,0.0426,0.056,0.0614,0.0674,0.0768,0.0814,0.0896,0.0912,0.0962,0.0945,0.093,0.0902,0.0737,0.0709,0.0625,0.0596,0.0626,0.0622,0.0624,0.0599,0.0602,0.0604,0.0579,0.0578,0.0578,0.0577,0,0.0349,0.0418,0.0473,0.059,0.067,0.0728,0.08,0.0782,0.0844,0.0953,0.0857,0.0812,0.0724,0.063,0.0597,0.0514,0.0653,0.0598,0.0604,0.06,0.0607,0.0585,0.059,0.0568,0.0569,0.057,0.057,0,0.0325,0.0356,0.0449,0.0544,0.0643,0.0648,0.0676,0.0672,0.0694,0.0757,0.0692,0.0642,0.0671,0.0562,0.048,0.0447,0.0438,0.0482,0.0494,0.0504,0.0465,0.046,0.0354,0,0,0,0,0,0.0296,0.0323,0.0391,0.0478,0.0573,0.0628,0.0651,0.0657,0.0702,0.0625,0.0671,0.0562,0.0476,0.0413,0.0348,0.0403,0.0423,0.0333,0.0476,0.0516,0.0526,0.0486,0,0,0,0,0,0,0.0271,0.0335,0.0358,0.0416,0.0466,0.0532,0.0525,0.0535,0.0476,0.0537,0.0441,0.0591,0.0445,0.0511,0.036,0.0357,0.0448,0.0342,0.0342,0.0509,0.0519,0.0528,0.049,0,0,0,0,0]},{"header":{"parameterUnit":"m.s-1","parameterCategory":2,"la1":30.2991,"la2":30.254,"lo1":-89.0895,"lo2":-89.0444,"dy":0.0017,"dx":0.0017,"nx":28,"ny":28,"refTime":"2023-07-24T03:00:00:Z","depth":"4","parameterNumber":3,"parameterNumberName":"V-component_of_CURRENTS"},"data":[0,0,0,0,0,0,0,0,0,0,0,0,0,0,0,0,0,0,0,0,0,0,0,0,0,0,0,0,0,0,0,0,0,0,0,0,0,0,0,0,0,0,0,0,0,0,0,0,0,0,0,0,0,0,0,0,0,0,-0.0125,-0.0126,0,-0.0227,-0.0228,-0.0229,-0.0304,-0.0305,-0.0305,-0.0306,-0.0392,-0.0394,-0.0396,0,0,0,0,0,0,0,0,0,0,0,0,0,-0.0043,-0.0044,-0.0125,-0.0126,-0.0127,-0.0226,-0.0228,-0.023,-0.0304,-0.0305,-0.0305,-0.0306,-0.0391,-0.0394,-0.0396,0,0,0,0,0,0,0,0,0,0,0,0,0,-0.0108,-0.0045,-0.0125,-0.0174,-0.0179,-0.0226,-0.0228,-0.023,-0.0304,-0.0305,-0.0305,-0.0306,-0.0391,-0.0393,-0.0396,-0.0403,0,0,-0.0405,-0.0407,0,0,0,0,0,0,0,0,-0.0104,-0.0111,-0.0166,-0.0171,-0.0176,-0.0251,-0.0231,-0.0286,-0.0304,-0.026,-0.0306,-0.0306,-0.0341,-0.0348,-0.037,-0.0407,-0.0411,-0.0406,-0.0407,-0.0409,-0.0409,0,0,0,0,0,0,0,-0.0099,-0.0107,-0.0168,-0.0167,-0.0173,-0.0207,-0.0217,-0.0242,-0.0298,-0.0264,-0.0269,-0.0275,-0.0344,-0.0367,-0.0373,-0.0412,-0.0405,-0.0408,-0.041,-0.0411,-0.0492,-0.0493,0,0,0,0,0,0,-0.0078,-0.0103,-0.0165,-0.0171,-0.0137,-0.0208,-0.0219,-0.0229,-0.0298,-0.0309,-0.0275,-0.0278,-0.0362,-0.0369,-0.0376,-0.0416,-0.0409,-0.0411,-0.0413,-0.0492,-0.0492,-0.0493,0,0,0,0,0,0,-0.0076,-0.0082,-0.0161,-0.0137,-0.0149,-0.0208,-0.0219,-0.023,-0.0279,-0.0306,-0.0317,-0.0314,-0.0363,-0.0372,-0.0417,-0.0419,-0.0413,-0.0415,-0.0491,-0.0492,-0.0492,-0.0477,0,0,0,0,0,0,-0.0073,-0.0081,-0.0099,-0.0135,-0.0149,-0.0199,-0.0219,-0.0232,-0.0279,-0.0286,-0.0342,-0.035,-0.0364,-0.0412,-0.0419,-0.0422,-0.0418,-0.0491,-0.0492,-0.0492,-0.0477,-0.0477,-0.0477,0,0,0,0,0,-0.007,-0.008,-0.0099,-0.0107,-0.0165,-0.0199,-0.0211,-0.0256,-0.028,-0.0303,-0.0341,-0.035,-0.0422,-0.0415,-0.0424,-0.0427,-0.049,-0.0491,-0.0492,-0.0477,-0.0477,-0.0477,0,0,0,0,0,0,-0.0061,-0.009,-0.0111,-0.0134,-0.017,-0.0211,-0.0237,-0.0269,-0.032,-0.0333,-0.0362,-0.0372,-0.0411,-0.0424,-0.0416,-0.0453,-0.0454,-0.0457,-0.044,-0.044,-0.044,-0.0425,-0.042,0,0,0,0,0,-0.0063,-0.0079,-0.0114,-0.0137,-0.0153,-0.0202,-0.0229,-0.0259,-0.0298,-0.0324,-0.036,-0.0394,-0.0417,-0.0434,-0.0461,-0.0485,-0.0484,-0.0491,-0.0491,-0.0491,-0.0484,-0.0489,-0.0488,-0.0496,-0.0496,-0.0496,0,0,-0.0068,-0.0085,-0.0098,-0.0136,-0.0169,-0.0187,-0.0221,-0.0262,-0.0282,-0.0322,-0.037,-0.0402,-0.0426,-0.0452,-0.0469,-0.0466,-0.0488,-0.0492,-0.0491,-0.0485,-0.0489,-0.0489,-0.0488,-0.0496,-0.0496,-0.0496,0,0,-0.0065,-0.0099,-0.0106,-0.0132,-0.0175,-0.0198,-0.0213,-0.0266,-0.0298,-0.0342,-0.037,-0.0406,-0.0452,-0.0463,-0.0473,-0.049,-0.0492,-0.05,-0.0484,-0.0489,-0.0488,-0.0487,-0.0481,-0.0479,-0.0495,-0.0495,-0.0495,0,-0.007,-0.0083,-0.0117,-0.0128,-0.0146,-0.02,-0.0212,-0.0247,-0.031,-0.0328,-0.0354,-0.0422,-0.045,-0.0464,-0.0471,-0.0488,-0.0489,-0.0481,-0.0487,-0.0487,-0.0486,-0.048,-0.0478,-0.0494,-0.0494,-0.0494,-0.0494,0,-0.0065,-0.0085,-0.0092,-0.0116,-0.0143,-0.0165,-0.0203,-0.0238,-0.0282,-0.0313,-0.0359,-0.0405,-0.0435,-0.0453,-0.0469,-0.0478,-0.0479,-0.049,-0.0483,-0.0484,-0.0478,-0.0477,-0.0493,-0.0494,-0.0494,-0.0494,0,0,-0.0039,-0.0079,-0.0081,-0.0093,-0.0139,-0.0155,-0.0182,-0.0214,-0.0226,-0.0295,-0.031,-0.0368,-0.0399,-0.0412,-0.0441,-0.0454,-0.0456,-0.047,-0.047,-0.0455,-0.0458,-0.0437,-0.0434,-0.0469,-0.0469,-0.0469,-0.0453,0,-0.0024,-0.003,-0.0058,-0.0074,-0.0083,-0.013,-0.0144,-0.0183,-0.0222,-0.0249,-0.0301,-0.0328,-0.0378,-0.0392,-0.0416,-0.0451,-0.0453,-0.0458,-0.0466,-0.0466,-0.0441,-0.0432,-0.0468,-0.0452,-0.0452,-0.0452,-0.0452,0,-0.0002,-0.0009,-0.0015,-0.0047,-0.0055,-0.0069,-0.0097,-0.0118,-0.016,-0.0189,-0.023,-0.0271,-0.0308,-0.0345,-0.0398,-0.04,-0.0422,-0.0449,-0.0449,-0.0432,-0.0443,-0.0454,-0.045,-0.045,-0.045,-0.045,-0.045,0,0.0049,0.0021,0.002,0.0008,-0.0032,-0.0041,-0.006,-0.0099,-0.01,-0.0141,-0.0141,-0.0211,-0.0226,-0.0284,-0.0355,-0.0371,-0.0404,-0.0427,-0.0424,-0.0423,-0.0453,-0.0454,-0.0441,-0.0441,-0.0441,-0.0441,-0.0441,0,0.0082,0.0079,0.0043,0.0045,0.0046,0.0001,0.0007,-0.0022,-0.0038,-0.0024,-0.01,-0.0115,-0.0211,-0.0252,-0.0325,-0.0371,-0.0377,-0.0413,-0.0416,-0.0447,-0.0448,-0.0452,-0.0453,-0.0441,-0.0441,-0.0441,-0.0441,0,0.0129,0.0106,0.0106,0.0077,0.007,0.0073,0.0065,0.0074,0.0051,0.0073,0.007,-0.002,-0.0092,-0.0174,-0.0262,-0.0308,-0.0369,-0.0375,-0.0388,-0.0393,-0.039,-0.0391,-0.0368,-0.0367,-0.0367,-0.0366,-0.0366,0,0.0145,0.0152,0.0143,0.0152,0.0137,0.014,0.0146,0.0123,0.0145,0.0119,0.0137,0.0072,0.0007,-0.012,-0.0216,-0.0318,-0.0336,-0.0344,-0.0386,-0.0376,-0.0382,-0.0384,-0.0386,-0.0364,-0.0364,-0.0364,-0.0364,0,0.0176,0.0176,0.0178,0.0211,0.0219,0.0229,0.0243,0.0249,0.0234,0.0255,0.0181,0.0092,0.002,-0.0123,-0.0178,-0.0265,-0.0337,-0.0337,-0.034,-0.0379,-0.0371,-0.0378,-0.0381,-0.0361,-0.0361,-0.0362,-0.0362,0,0.0199,0.0208,0.0224,0.0248,0.028,0.0278,0.0269,0.0265,0.0266,0.0246,0.0216,0.0095,0.004,-0.0093,-0.0167,-0.0227,-0.0253,-0.0276,-0.0282,-0.0286,-0.0276,-0.0255,-0.0202,0,0,0,0,0,0.0222,0.023,0.0255,0.027,0.0314,0.0328,0.0323,0.0311,0.031,0.0273,0.0244,0.0161,0.0017,-0.008,-0.0138,-0.015,-0.0254,-0.0216,-0.0281,-0.0346,-0.0349,-0.0351,0,0,0,0,0,0,0.0224,0.0259,0.0254,0.0295,0.032,0.035,0.0333,0.0318,0.0283,0.027,0.0168,0.0187,0.0022,0.007,-0.0122,-0.014,-0.0185,-0.0265,-0.0266,-0.0345,-0.0347,-0.035,-0.0353,0,0,0,0,0]}]]